RH
71 73 67 66 70 71 72 70 66 64 59 52 47 42 39 38 38 39 39 38 38 39 42 45 44 44 41 39 40 42 45 47 47 47 51 52 50 49 47 44 42 41
69 75 67 65 72 71 68 68 65 64 59 50 44 40 38 39 40 39 39 38 39 41 43 45 46 45 42 40 41 42 45 49 50 50 54 55 53 51 47 43 41 41
61 69 64 63 71 71 66 66 64 64 62 52 45 41 39 39 40 39 38 38 40 43 45 47 49 48 44 41 40 41 44 49 52 52 54 57 56 54 50 44 41 41
54 62 63 62 70 73 68 64 61 63 64 57 49 44 41 39 40 39 37 38 41 44 46 48 50 50 46 42 41 40 42 48 52 52 55 58 58 56 53 46 41 41
49 56 61 63 68 73 71 64 60 61 62 60 55 51 46 40 40 40 37 38 40 41 46 50 49 48 47 45 42 39 40 45 50 51 54 58 58 56 55 48 41 40
47 52 57 63 66 70 72 68 66 64 64 64 60 57 53 44 40 41 38 36 39 40 45 48 47 47 50 47 42 40 39 41 46 50 53 56 56 55 56 51 42 39
45 49 53 60 64 67 71 72 73 72 71 72 67 59 55 48 42 43 41 37 37 40 45 46 45 48 51 49 44 42 40 40 45 49 52 55 54 55 57 53 43 39
39 46 51 56 59 63 68 72 75 73 70 73 73 66 57 51 47 45 44 40 38 40 45 46 45 49 52 50 47 44 43 44 46 49 51 55 54 55 58 55 45 39
34 42 50 54 55 58 64 68 71 70 66 65 71 72 63 54 51 49 46 44 42 42 45 46 46 49 52 52 49 47 46 47 48 49 51 54 55 55 56 55 48 40
34 38 46 53 55 56 58 60 63 66 67 63 64 69 68 61 56 54 53 50 47 45 46 45 45 48 52 53 51 49 49 49 50 51 52 54 55 54 54 54 50 42
33 35 41 50 55 56 55 55 57 60 63 63 61 64 70 71 63 58 57 52 46 45 46 45 46 50 53 55 53 51 51 51 50 50 51 53 54 53 52 52 52 46
32 37 41 46 51 57 57 58 60 62 63 63 63 62 67 74 69 60 56 50 42 44 46 47 51 55 56 56 54 52 51 51 49 48 50 52 52 52 51 51 51 48
34 38 41 42 46 53 57 58 61 63 64 64 65 64 66 72 72 65 59 49 41 45 49 51 55 59 59 57 53 50 50 48 47 49 51 53 52 49 50 50 49 48
36 38 39 40 43 47 50 54 57 60 63 64 66 66 66 71 75 70 61 50 45 49 55 56 58 60 59 56 51 49 48 45 46 50 53 53 51 48 48 48 48 48
36 37 40 42 44 45 47 52 57 59 60 62 65 68 69 74 80 76 63 53 50 54 60 62 62 60 55 52 50 48 47 46 48 52 52 51 48 47 47 47 46 47
35 37 42 46 47 49 52 55 58 61 61 61 66 72 73 77 84 80 67 61 58 56 61 64 64 61 55 50 49 47 47 50 52 51 48 46 45 46 46 44 43 43
35 36 40 45 48 53 56 56 57 61 60 57 63 73 73 73 79 78 70 69 66 59 60 64 62 60 58 53 50 49 51 51 49 47 44 42 43 45 45 42 42 42
41 41 42 45 49 55 59 59 60 61 57 53 58 70 72 69 74 75 67 68 72 66 62 62 59 59 59 56 53 53 52 48 45 44 43 41 41 42 43 42 41 42
53 54 55 53 52 55 58 59 59 58 56 54 56 64 69 68 71 69 57 59 73 74 65 59 58 60 60 58 58 56 50 46 44 44 44 43 41 41 41 41 41 41
60 63 64 61 56 56 58 60 58 55 54 54 54 59 64 65 65 61 54 60 75 76 67 62 61 62 62 61 60 56 49 46 46 45 44 44 44 43 43 44 44 45
63 64 65 61 57 59 64 65 61 56 54 54 55 58 59 58 59 62 67 75 79 74 68 67 66 65 65 62 59 53 49 47 46 45 44 45 45 45 46 47 48 47
63 60 60 58 55 58 62 63 60 57 55 54 56 57 57 59 66 75 82 82 77 73 70 69 68 66 64 61 56 52 50 47 45 43 44 46 47 49 52 53 48 43
63 62 61 59 57 57 58 59 60 59 57 57 58 57 60 68 76 84 86 80 74 73 73 71 68 64 62 59 56 53 51 47 44 43 45 47 51 54 57 54 47 40
58 60 60 57 55 54 54 55 58 60 59 58 56 57 65 76 83 86 85 79 77 76 73 70 65 60 58 58 55 54 53 49 45 43 46 50 54 57 55 49 42 39
50 51 50 49 48 48 47 47 52 58 60 58 56 60 70 80 83 83 81 77 77 76 70 66 62 58 57 58 57 57 57 52 45 43 47 51 54 55 53 46 40 39
43 43 41 41 43 44 45 46 49 52 54 56 57 63 75 80 77 75 74 73 74 73 70 66 61 58 58 59 60 62 59 51 43 42 48 52 52 51 51 48 45 44